User: anonymous   Login
Location: *
(49.8044°N, 4.0558°E)
Time: 20:42:00
(UTC+00:00)
Language:

Cosmos 1459 Rocket - Orbit

View from above orbital plane
View from above orbital plane
View from above satellite
View from above satellite

Ground track
Ground track

The orbit data is extracted from the following two-line orbital elements,

1 14059U 83042B   20184.85312169 +.00000019 +00000-0 +35049-5 0  9992
2 14059 082.9724 316.7327 0043169 026.2639 334.0695 13.78690151868668
Epoch (UTC): 02 July 2020 20:28:29
Eccentricity: 0.0043169
inclination: 82.9724°
perigee height: 937 km
apogee height: 1000 km
right ascension of ascending node: 316.7327°
argument of perigee: 26.2639°
revolutions per day: 13.78690151
mean anomaly at epoch: 334.0695°
orbit number at epoch: 86866

The dashed part of the orbit path shows where the satellite is in the earth's shadow,  

DLR